Location: Bay Ridge
(40.6340°N, 74.0146°W)
Time: 02:49:34
(UTC+00:00)

Cosmos 2227 Rocket - Pass Details

Date: 15 November 2019
Orbit: 838 x 846 km, 71.0° (Epoch: 14 December)

Event Time Altitude Azimuth Distance (km) Brightness Sun altitude
Rises 23:59:42 0° 326° (NW) 3,411 5.8 -26.7°
Reaches altitude 10° 00:02:24 10° 316° (NW) 2,470 5.1 -27.2°
Maximum altitude 00:07:16 30° 257° (WSW) 1,465 4.0 -28.1°
Drops below altitude 10° 00:12:06 10° 197° (SSW) 2,452 4.8 -29.0°
Sets 00:14:47 0° 187° (S) 3,381 5.4 -29.5°
